Weather Roundup
Issued by NWS Springfield, MO

Home | Current Version | Previous Version | Text Only | Print | Product List | Glossary On
Versions: 1 2 3 4 5 6 7 8 9 10 11 12 13 14 15 16 17 18 19 20 21 22 23 24 25 26 27 28 29 30 31 32 33 34 35 36 37 38 39 40 41 42 43 44 45 46 47 48 49 50
000
NZUS99 KSGF 021707
HRRSGF

HOURLY WEATHER
NATIONAL WEATHER SERVICE SPRINGFIELD MO
1200 PM CDT TUE SEP 02 2014

......SGF CWA......

CITY           SKY/WX    TMP DP  RH WIND       PRES   REMARKS
SPRINGFIELD    CLOUDY    69  64  84 SW5       30.04R
JOPLIN         CLOUDY    69  67  93 SW7       30.07R
WEST PLAINS    CLOUDY    70  66  87 W7        30.05R
ROLLA          CLOUDY    73  66  78 W13       30.01R
OSAGE BEACH    CLOUDY    72  66  83 W7        30.04R
BRANSON        CLOUDY    66  64  94 CALM      30.08R

......SURROUNDING SGF CWA......

CITY           SKY/WX    TMP DP  RH WIND       PRES   REMARKS
CHANUTE        CLOUDY    74  67  78 S13       30.05R
PARSONS        CLOUDY    71  66  84 S7        30.07R
COFFEYVILLE    CLOUDY    71  67  87 S10       30.05R
EMPORIA        CLOUDY    72  70  93 SE5       30.02R
GROVE OK       CLOUDY    70  70 100 W3        30.08R
ROGERS AR      CLOUDY    66  62  87 S15       30.09R
HARRISON AR    LGT RAIN  67  65  93 SW10      30.09R
NEAR YELLVILLE CLOUDY    70  63  78 SW15G23   30.04R

......KANSAS AND MISSOURI......

CITY           SKY/WX    TMP DP  RH WIND       PRES   REMARKS
KANSAS CTY INT PTSUNNY   76  67  73 CALM      30.01R
DOWNTOWN KC    PTSUNNY   78  69  73 VRB3      29.99S
COLUMBIA       CLOUDY    75  70  84 W7        30.01R
SEDALIA        CLOUDY    77  71  82 SW7       30.02R
ST JOSEPH      SUNNY     77  64  64 VRB3      30.01R
ST LOUIS       CLOUDY    77  70  79 NW8       29.98S
SPIRIT OF STL  CLOUDY    75  72  88 W8        29.98R
KIRKSVILLE     MOSUNNY   78  65  63 VRB5      29.99S
WICHITA        PTSUNNY   81  66  60 SE10      30.01S
TOPEKA         MOSUNNY   80  70  71 VRB3      30.01R
OLATHE         CLOUDY    73  68  84 E3        30.01R

......TENNESSEE......

CITY           SKY/WX    TMP DP  RH WIND       PRES   REMARKS
MEMPHIS        PTSUNNY   84  74  71 SW10      30.04F HX  91
NASHVILLE      PTSUNNY   89  72  56 SW9G17    30.03F HX  96

......ARKANSAS.......

CITY           SKY/WX    TMP DP  RH WIND       PRES   REMARKS
FAYETTEVILLE   TSTM      66  65  96 S12       30.10F
FT SMITH       LGT RAIN  70  67  90 S5        30.14R
LITTLE ROCK    LGT RAIN  78  70  76 NW10      30.07R

......OKLAHOMA.......

CITY           SKY/WX    TMP DP  RH WIND       PRES   REMARKS
TULSA          CLOUDY    69  67  93 E8        30.01F
PONCA CITY     CLOUDY    75  68  78 SE14      30.02R
MCALESTER      RAIN      69  67  93 E8        30.10F
OKLAHOMA CITY  CLOUDY    80  71  74 SE20G28   30.01R

......IOWA............

CITY           SKY/WX    TMP DP  RH WIND       PRES   REMARKS
DES MOINES     MOSUNNY   75  59  57 VRB5      29.96F
QUAD CITIES    MOSUNNY   76  59  55 CALM      29.94F

......ILLINOIS........

CITY           SKY/WX    TMP DP  RH WIND       PRES   REMARKS
QUINCY         CLOUDY    77  67  71 W8        29.96S
CHICAGO        PTSUNNY   79  58  48 W9        29.90S



USA.gov is the U.S. government's official web portal to all federal, state and local government web resources and services.